Time,TemperatureF,DewpointF,PressureIn,WindDirection,WindDirectionDegrees,WindSpeedMPH,WindSpeedGustMPH,Humidity,HourlyPrecipIn,Conditions,Clouds,dailyrainin,SolarRadiationWatts/m^2,SoftwareType,DateUTC
2013-08-16 00:01:00,58.0,58.0,-100.00,NE,39,5.0,7.0,100,0.15,,,0.30,0.000000,,2013-08-16 08:01:00,
2013-08-16 00:11:00,58.0,58.0,-100.00,NE,39,5.0,7.0,100,0.15,,,0.30,0.000000,,2013-08-16 08:11:00,
2013-08-16 00:21:00,58.0,58.0,-100.00,NE,39,5.0,7.0,100,0.15,,,0.30,0.000000,,2013-08-16 08:21:00,
2013-08-16 00:52:00,55.0,55.0,-100.00,WSW,252,5.0,7.0,100,0.00,,,-99.99,0.000000,,2013-08-16 08:52:00,
2013-08-16 01:01:00,55.0,55.0,-100.00,WSW,252,5.0,7.0,100,0.00,,,-99.99,0.000000,,2013-08-16 09:01:00,
2013-08-16 01:11:00,55.0,55.0,-100.00,WSW,252,5.0,7.0,100,0.00,,,-99.99,0.000000,,2013-08-16 09:11:00,
2013-08-16 01:21:00,55.0,55.0,-100.00,WSW,252,5.0,7.0,100,0.00,,,-99.99,0.000000,,2013-08-16 09:21:00,
2013-08-16 01:53:00,55.0,55.0,-100.00,SW,223,2.0,5.0,100,0.00,,,0.30,0.000000,,2013-08-16 09:53:00,
2013-08-16 02:03:00,55.0,55.0,-100.00,SW,223,2.0,5.0,100,0.00,,,0.30,0.000000,,2013-08-16 10:03:00,
2013-08-16 02:13:00,55.0,55.0,-100.00,SW,223,2.0,5.0,100,0.00,,,0.30,0.000000,,2013-08-16 10:13:00,
2013-08-16 02:23:00,55.0,55.0,-100.00,SW,223,2.0,5.0,100,0.00,,,0.30,0.000000,,2013-08-16 10:23:00,
2013-08-16 02:52:00,54.0,54.0,-100.00,SSE,158,2.0,4.0,100,0.00,,,0.30,0.000000,,2013-08-16 10:52:00,
2013-08-16 03:02:00,54.0,54.0,-100.00,SSE,158,2.0,4.0,100,0.00,,,0.30,0.000000,,2013-08-16 11:02:00,
2013-08-16 03:12:00,54.0,54.0,-100.00,SSE,158,2.0,4.0,100,0.00,,,0.30,0.000000,,2013-08-16 11:12:00,
2013-08-16 03:21:00,54.0,54.0,-100.00,SSE,158,2.0,4.0,100,0.00,,,0.30,0.000000,,2013-08-16 11:21:00,
2013-08-16 03:52:00,53.0,53.0,-100.00,NW,318,2.0,4.0,100,0.00,,,0.30,0.000000,,2013-08-16 11:52:00,
2013-08-16 04:02:00,53.0,53.0,-100.00,NW,318,2.0,4.0,100,0.00,,,0.30,0.000000,,2013-08-16 12:02:00,
2013-08-16 04:12:00,53.0,53.0,-100.00,NW,318,2.0,4.0,100,0.00,,,0.30,0.000000,,2013-08-16 12:12:00,
2013-08-16 04:21:00,53.0,53.0,-100.00,NW,318,2.0,4.0,100,0.00,,,0.30,0.000000,,2013-08-16 12:21:00,
2013-08-16 04:52:00,52.0,52.0,-100.00,SSE,152,2.0,4.0,100,0.00,,,0.30,0.000000,,2013-08-16 12:52:00,
2013-08-16 05:02:00,52.0,52.0,-100.00,SSE,152,2.0,4.0,100,0.00,,,0.30,0.000000,,2013-08-16 13:02:00,
2013-08-16 05:11:00,52.0,52.0,-100.00,SSE,152,2.0,4.0,100,0.00,,,0.30,0.000000,,2013-08-16 13:11:00,
2013-08-16 05:21:00,52.0,52.0,-100.00,SSE,152,2.0,4.0,100,0.00,,,0.30,0.000000,,2013-08-16 13:21:00,
2013-08-16 05:53:00,53.0,53.0,-100.00,SSE,164,3.0,4.0,100,0.00,,,-99.99,0.000000,,2013-08-16 13:53:00,
2013-08-16 06:02:00,53.0,53.0,-100.00,SSE,164,3.0,4.0,100,0.00,,,-99.99,0.000000,,2013-08-16 14:02:00,
2013-08-16 06:11:00,53.0,53.0,-100.00,SSE,164,3.0,4.0,100,0.00,,,-99.99,0.000000,,2013-08-16 14:11:00,
2013-08-16 06:21:00,53.0,53.0,-100.00,SSE,164,3.0,4.0,100,0.00,,,-99.99,0.000000,,2013-08-16 14:21:00,
2013-08-16 06:52:00,53.0,53.0,-100.00,South,170,4.0,5.0,100,0.00,,,0.30,3.000000,,2013-08-16 14:52:00,
2013-08-16 07:01:00,53.0,53.0,-100.00,South,170,4.0,5.0,100,0.00,,,0.30,3.000000,,2013-08-16 15:01:00,
2013-08-16 07:12:00,53.0,53.0,-100.00,South,170,4.0,5.0,100,0.00,,,0.30,3.000000,,2013-08-16 15:12:00,
2013-08-16 07:22:00,53.0,53.0,-100.00,South,170,4.0,5.0,100,0.00,,,0.30,3.000000,,2013-08-16 15:22:00,
2013-08-16 07:56:00,53.0,53.0,-100.00,SSW,204,1.0,5.0,100,0.01,,,0.31,19.000000,,2013-08-16 15:56:00,
2013-08-16 08:04:00,53.0,53.0,-100.00,SSW,204,1.0,5.0,100,0.01,,,0.31,19.000000,,2013-08-16 16:04:00,
2013-08-16 08:13:00,53.0,53.0,-100.00,SSW,204,1.0,5.0,100,0.01,,,0.31,19.000000,,2013-08-16 16:13:00,
2013-08-16 08:23:00,53.0,53.0,-100.00,SSW,204,1.0,5.0,100,0.01,,,0.31,19.000000,,2013-08-16 16:23:00,
2013-08-16 08:25:00,54.0,54.0,-100.00,East,98,3.0,4.0,100,0.00,,,0.31,78.000000,,2013-08-16 16:25:00,
2013-08-16 08:57:00,54.0,54.0,-100.00,East,98,3.0,4.0,100,0.00,,,0.31,78.000000,,2013-08-16 16:57:00,
2013-08-16 09:03:00,54.0,54.0,-100.00,East,98,3.0,4.0,100,0.00,,,0.31,78.000000,,2013-08-16 17:03:00,
2013-08-16 09:12:00,54.0,54.0,-100.00,East,98,3.0,4.0,100,0.00,,,0.31,78.000000,,2013-08-16 17:12:00,
2013-08-16 09:25:00,56.0,56.0,-100.00,East,91,3.0,6.0,100,0.00,,,0.31,123.000000,,2013-08-16 17:25:00,
2013-08-16 10:00:00,56.0,56.0,-100.00,East,91,3.0,6.0,100,0.00,,,0.31,123.000000,,2013-08-16 18:00:00,
2013-08-16 10:06:00,56.0,56.0,-100.00,East,91,3.0,6.0,100,0.00,,,0.31,123.000000,,2013-08-16 18:06:00,
2013-08-16 10:15:00,56.0,56.0,-100.00,East,91,3.0,6.0,100,0.00,,,0.31,123.000000,,2013-08-16 18:15:00,
2013-08-16 10:25:00,57.0,57.0,-100.00,SSE,162,2.0,6.0,100,0.00,,,0.31,192.000000,,2013-08-16 18:25:00,
2013-08-16 10:55:00,57.0,57.0,-100.00,SSE,162,2.0,6.0,100,0.00,,,0.31,192.000000,,2013-08-16 18:55:00,
2013-08-16 11:03:00,57.0,57.0,-100.00,SSE,162,2.0,6.0,100,0.00,,,0.31,192.000000,,2013-08-16 19:03:00,
2013-08-16 11:14:00,57.0,57.0,-100.00,SSE,162,2.0,6.0,100,0.00,,,0.31,192.000000,,2013-08-16 19:14:00,
2013-08-16 11:55:00,62.0,61.0,-100.00,South,189,3.0,6.0,97,0.00,,,0.29,383.000000,,2013-08-16 19:55:00,
2013-08-16 12:02:00,62.0,61.0,-100.00,South,189,3.0,6.0,97,0.00,,,0.29,383.000000,,2013-08-16 20:02:00,
2013-08-16 12:11:00,62.0,61.0,-100.00,South,189,3.0,6.0,97,0.00,,,0.29,383.000000,,2013-08-16 20:11:00,
2013-08-16 12:23:00,62.0,61.0,-100.00,South,189,3.0,6.0,97,0.00,,,0.29,383.000000,,2013-08-16 20:23:00,
2013-08-16 12:25:00,64.0,62.0,-100.00,WSW,239,3.0,7.0,93,0.00,,,0.27,438.000000,,2013-08-16 20:25:00,
2013-08-16 13:11:00,64.0,62.0,-100.00,WSW,239,3.0,7.0,93,0.00,,,0.27,438.000000,,2013-08-16 21:11:00,
2013-08-16 13:54:00,65.0,59.0,-100.00,NNW,348,3.0,6.0,82,0.00,,,0.27,501.000000,,2013-08-16 21:54:00,
2013-08-16 14:07:00,65.0,59.0,-100.00,NNW,348,3.0,6.0,82,0.00,,,0.27,501.000000,,2013-08-16 22:07:00,
2013-08-16 14:13:00,65.0,59.0,-100.00,NNW,348,3.0,6.0,82,0.00,,,0.27,501.000000,,2013-08-16 22:13:00,
2013-08-16 14:24:00,65.0,59.0,-100.00,NNW,348,3.0,6.0,82,0.00,,,0.27,501.000000,,2013-08-16 22:24:00,
2013-08-16 14:52:00,69.0,59.0,-100.00,WSW,237,3.0,7.0,71,0.00,,,0.27,553.000000,,2013-08-16 22:52:00,
2013-08-16 15:09:00,69.0,59.0,-100.00,WSW,237,3.0,7.0,71,0.00,,,0.27,553.000000,,2013-08-16 23:09:00,
2013-08-16 15:23:00,69.0,59.0,-100.00,WSW,237,3.0,7.0,71,0.00,,,0.27,553.000000,,2013-08-16 23:23:00,
2013-08-16 15:52:00,69.0,58.0,-100.00,WNW,292,4.0,8.0,68,0.00,,,0.27,464.000000,,2013-08-16 23:52:00,
2013-08-16 16:01:00,69.0,58.0,-100.00,WNW,292,4.0,8.0,68,0.00,,,0.27,464.000000,,2013-08-17 00:01:00,
2013-08-16 16:11:00,69.0,58.0,-100.00,WNW,292,4.0,8.0,68,0.00,,,0.27,464.000000,,2013-08-17 00:11:00,
2013-08-16 16:21:00,69.0,58.0,-100.00,WNW,292,4.0,8.0,68,0.00,,,0.27,464.000000,,2013-08-17 00:21:00,
2013-08-16 16:52:00,70.0,58.0,-100.00,NW,312,4.0,9.0,65,0.00,,,0.27,500.000000,,2013-08-17 00:52:00,
2013-08-16 17:01:00,70.0,58.0,-100.00,NW,312,4.0,9.0,65,0.00,,,0.27,500.000000,,2013-08-17 01:01:00,
2013-08-16 17:11:00,70.0,58.0,-100.00,NW,312,4.0,9.0,65,0.00,,,0.27,500.000000,,2013-08-17 01:11:00,
2013-08-16 17:21:00,70.0,58.0,-100.00,NW,312,4.0,9.0,65,0.00,,,0.27,500.000000,,2013-08-17 01:21:00,
2013-08-16 17:52:00,69.0,56.0,-100.00,NW,311,4.0,9.0,64,0.00,,,0.27,355.000000,,2013-08-17 01:52:00,
2013-08-16 18:01:00,69.0,56.0,-100.00,NW,311,4.0,9.0,64,0.00,,,0.27,355.000000,,2013-08-17 02:01:00,
2013-08-16 18:11:00,69.0,56.0,-100.00,NW,311,4.0,9.0,64,0.00,,,0.27,355.000000,,2013-08-17 02:11:00,
2013-08-16 18:21:00,69.0,56.0,-100.00,NW,311,4.0,9.0,64,0.00,,,0.27,355.000000,,2013-08-17 02:21:00,
2013-08-16 18:52:00,70.0,56.0,-100.00,NNE,32,5.0,9.0,61,0.00,,,0.27,337.000000,,2013-08-17 02:52:00,
2013-08-16 19:01:00,70.0,56.0,-100.00,NNE,32,5.0,9.0,61,0.00,,,0.27,337.000000,,2013-08-17 03:01:00,
2013-08-16 19:11:00,70.0,56.0,-100.00,NNE,32,5.0,9.0,61,0.00,,,0.27,337.000000,,2013-08-17 03:11:00,
2013-08-16 19:21:00,70.0,56.0,-100.00,NNE,32,5.0,9.0,61,0.00,,,0.27,337.000000,,2013-08-17 03:21:00,
2013-08-16 19:53:00,70.0,55.0,-100.00,NNE,18,3.0,10.0,59,0.00,,,0.27,282.000000,,2013-08-17 03:53:00,
2013-08-16 20:03:00,70.0,55.0,-100.00,NNE,18,3.0,10.0,59,0.00,,,0.27,282.000000,,2013-08-17 04:03:00,
2013-08-16 20:12:00,70.0,55.0,-100.00,NNE,18,3.0,10.0,59,0.00,,,0.27,282.000000,,2013-08-17 04:12:00,
2013-08-16 20:23:00,70.0,55.0,-100.00,NNE,18,3.0,10.0,59,0.00,,,0.27,282.000000,,2013-08-17 04:23:00,
2013-08-16 20:53:00,69.0,53.0,-100.00,NE,42,2.0,6.0,57,0.00,,,0.27,161.000000,,2013-08-17 04:53:00,
2013-08-16 21:03:00,69.0,53.0,-100.00,NE,42,2.0,6.0,57,0.00,,,0.27,161.000000,,2013-08-17 05:03:00,
2013-08-16 21:12:00,69.0,53.0,-100.00,NE,42,2.0,6.0,57,0.00,,,0.27,161.000000,,2013-08-17 05:12:00,
2013-08-16 21:22:00,69.0,53.0,-100.00,NE,42,2.0,6.0,57,0.00,,,0.27,161.000000,,2013-08-17 05:22:00,
2013-08-16 21:52:00,63.0,55.0,-100.00,North,1,2.0,4.0,75,0.00,,,0.27,62.000000,,2013-08-17 05:52:00,
2013-08-16 22:01:00,63.0,55.0,-100.00,North,1,2.0,4.0,75,0.00,,,0.27,62.000000,,2013-08-17 06:01:00,
2013-08-16 22:12:00,63.0,55.0,-100.00,North,1,2.0,4.0,75,0.00,,,0.27,62.000000,,2013-08-17 06:12:00,
2013-08-16 22:21:00,63.0,55.0,-100.00,North,1,2.0,4.0,75,0.00,,,0.27,62.000000,,2013-08-17 06:21:00,
2013-08-16 22:52:00,54.0,54.0,-100.00,NNE,24,1.0,4.0,100,0.00,,,0.16,7.000000,,2013-08-17 06:52:00,
2013-08-16 23:01:00,54.0,54.0,-100.00,NNE,24,1.0,4.0,100,0.00,,,0.16,7.000000,,2013-08-17 07:01:00,
2013-08-16 23:11:00,54.0,54.0,-100.00,NNE,24,1.0,4.0,100,0.00,,,0.16,7.000000,,2013-08-17 07:11:00,
2013-08-16 23:21:00,54.0,54.0,-100.00,NNE,24,1.0,4.0,100,0.00,,,0.16,7.000000,,2013-08-17 07:21:00,
2013-08-16 23:52:00,51.0,51.0,-100.00,NNE,31,2.0,3.0,100,0.00,,,-99.99,1.000000,,2013-08-17 07:52:00,